[[{"header":{"parameterUnit":"m.s-1","parameterCategory":1,"la1":30.2991,"la2":30.254,"lo1":-89.0895,"lo2":-89.0444,"dy":0.0017,"dx":0.0017,"nx":28,"ny":28,"refTime":"2023-10-02T21:00:00:Z","depth":0,"parameterNumber":2,"parameterNumberName":"U-component_of_WINDS"},"data":[0,0,0,0,0,0,0,0,0,0,0,0,0,0,0,0,0,0,0,0,0,0,0,0,0,0,0,0,0,0,0,0,0,0,0,0,0,0,0,0,0,0,0,0,0,0,0,0,0,0,0,0,0,0,0,0,0,0,-5.3148,-5.3147,0,-5.311,-5.3109,-5.3109,-5.2959,-5.2955,-5.2952,-5.2949,-5.2912,-5.2914,-5.2916,0,0,0,0,0,0,0,0,0,0,0,0,0,-5.3094,-5.3096,-5.3148,-5.3147,-5.3147,-5.311,-5.3109,-5.3109,-5.2959,-5.2955,-5.2951,-5.2947,-5.2911,-5.2913,-5.2916,0,0,0,0,0,0,0,0,0,0,0,0,0,-5.3093,-5.3097,-5.3148,-5.3068,-5.306,-5.311,-5.3109,-5.3109,-5.296,-5.2955,-5.295,-5.2945,-5.291,-5.2913,-5.2917,-5.3041,0,0,-5.2927,-5.2928,0,0,0,0,0,0,0,0,-5.3093,-5.3095,-5.308,-5.3073,-5.3065,-5.3034,-5.3077,-5.3086,-5.2962,-5.2998,-5.2949,-5.2943,-5.2957,-5.2956,-5.296,-5.3039,-5.3037,-5.2927,-5.2929,-5.2931,-5.2931,0,0,0,0,0,0,0,-5.3094,-5.3096,-5.3133,-5.308,-5.3071,-5.3035,-5.3029,-5.3078,-5.3007,-5.2995,-5.2984,-5.2981,-5.2951,-5.2957,-5.2958,-5.3037,-5.2927,-5.293,-5.2932,-5.2933,-5.3217,-5.3222,0,0,0,0,0,0,-5.3105,-5.3097,-5.3134,-5.3132,-5.3067,-5.304,-5.3033,-5.3049,-5.3006,-5.2994,-5.2986,-5.2974,-5.2954,-5.2954,-5.2956,-5.3098,-5.293,-5.2934,-5.2936,-5.3211,-5.3218,-5.3224,0,0,0,0,0,0,-5.3104,-5.3109,-5.3135,-5.3111,-5.3112,-5.3046,-5.3065,-5.3051,-5.3056,-5.2999,-5.2986,-5.3004,-5.295,-5.2951,-5.3021,-5.3095,-5.2935,-5.2938,-5.3205,-5.3214,-5.3221,-5.3384,0,0,0,0,0,0,-5.3103,-5.311,-5.3156,-5.3114,-5.3114,-5.32,-5.307,-5.3054,-5.3062,-5.3047,-5.3013,-5.3002,-5.2946,-5.3017,-5.3024,-5.3096,-5.2941,-5.3198,-5.3209,-5.3219,-5.3372,-5.3397,-5.3418,0,0,0,0,0,-5.3102,-5.3203,-5.3159,-5.3164,-5.3169,-5.3205,-5.3205,-5.3137,-5.3069,-5.3115,-5.3078,-5.3004,-5.3087,-5.3025,-5.3032,-5.3107,-5.3193,-5.3206,-5.3218,-5.3361,-5.3392,-5.3418,0,0,0,0,0,0,-5.3256,-5.3196,-5.3146,-5.3237,-5.3227,-5.3179,-5.3234,-5.3172,-5.3181,-5.3167,-5.3083,-5.3077,-5.3159,-5.314,-5.3073,-5.3225,-5.3127,-5.3142,-5.3234,-5.3262,-5.3285,-5.3287,-5.2944,0,0,0,0,0,-5.3301,-5.3334,-5.328,-5.3365,-5.3363,-5.3301,-5.3313,-5.3262,-5.3249,-5.3244,-5.3212,-5.3203,-5.3227,-5.3244,-5.3263,-5.337,-5.336,-5.3425,-5.3448,-5.3467,-5.348,-5.3535,-5.3563,-5.3265,-5.3265,-5.3265,0,0,-5.3392,-5.3364,-5.339,-5.3396,-5.3382,-5.3419,-5.3298,-5.3341,-5.3368,-5.3251,-5.3313,-5.3291,-5.3275,-5.3364,-5.3402,-5.3351,-5.3561,-5.3483,-5.3499,-5.3501,-5.3551,-5.3579,-5.3604,-5.3273,-5.3272,-5.3271,0,0,-5.3578,-5.3561,-5.3629,-5.3619,-5.36,-5.3558,-5.3575,-5.3538,-5.3518,-5.358,-5.3493,-5.3525,-5.3567,-5.3559,-5.3561,-5.3748,-5.368,-5.3757,-5.3878,-5.3933,-5.3956,-5.3977,-5.4042,-5.4067,-5.3771,-5.3771,-5.3771,0,-5.3695,-5.3746,-5.3673,-5.3723,-5.3728,-5.3625,-5.3694,-5.3688,-5.3677,-5.3683,-5.3627,-5.3679,-5.3661,-5.3746,-5.3792,-5.3798,-5.3815,-5.3759,-5.3959,-5.3979,-5.3996,-5.4058,-5.4083,-5.378,-5.3779,-5.3778,-5.3778,0,-5.389,-5.3927,-5.3985,-5.3977,-5.3989,-5.4049,-5.3986,-5.4008,-5.3957,-5.3922,-5.3987,-5.3963,-5.3975,-5.3992,-5.3943,-5.4072,-5.404,-5.3974,-5.3872,-5.4035,-5.4092,-5.4115,-5.3794,-5.3791,-5.3788,-5.3785,0,0,-5.4167,-5.412,-5.4142,-5.4138,-5.4111,-5.4138,-5.4195,-5.4206,-5.4226,-5.4224,-5.4268,-5.4309,-5.4246,-5.4249,-5.4199,-5.4247,-5.4396,-5.4173,-5.4172,-5.4214,-5.4536,-5.4585,-5.4613,-5.4352,-5.4356,-5.436,-5.4536,0,-5.4343,-5.4434,-5.4372,-5.4474,-5.4508,-5.4412,-5.4461,-5.4451,-5.4421,-5.4445,-5.4412,-5.4441,-5.4358,-5.4358,-5.4403,-5.4369,-5.4459,-5.4356,-5.4392,-5.4395,-5.4396,-5.4642,-5.4694,-5.4861,-5.4558,-5.4562,-5.4564,0,-5.4559,-5.4565,-5.4671,-5.4638,-5.465,-5.4695,-5.4701,-5.4727,-5.4714,-5.4689,-5.4693,-5.4631,-5.4685,-5.4589,-5.4662,-5.4593,-5.4605,-5.4591,-5.4596,-5.4595,-5.4487,-5.4646,-5.4913,-5.4938,-5.4599,-5.4596,-5.4594,0,-5.4749,-5.4785,-5.4852,-5.4851,-5.4816,-5.485,-5.4837,-5.4819,-5.483,-5.4837,-5.4844,-5.4857,-5.4864,-5.4877,-5.482,-5.4756,-5.4901,-5.48,-5.4881,-5.4883,-5.4913,-5.4911,-5.5184,-5.4926,-5.4926,-5.4925,-5.4925,0,-5.495,-5.5017,-5.4937,-5.4978,-5.5052,-5.4982,-5.5057,-5.5034,-5.502,-5.5056,-5.4975,-5.5011,-5.4936,-5.4964,-5.4921,-5.4988,-5.4993,-5.4974,-5.4961,-5.4979,-5.4981,-5.4984,-5.497,-5.4932,-5.493,-5.4929,-5.4928,0,-5.5172,-5.5121,-5.5188,-5.515,-5.5142,-5.5199,-5.5166,-5.5203,-5.5169,-5.5216,-5.5223,-5.5169,-5.5198,-5.5145,-5.5168,-5.5139,-5.5232,-5.5203,-5.5236,-5.5226,-5.531,-5.5302,-5.5591,-5.5626,-5.5348,-5.5351,-5.5353,0,-5.5302,-5.5352,-5.532,-5.5338,-5.533,-5.536,-5.5372,-5.5306,-5.5321,-5.5312,-5.5351,-5.5374,-5.5388,-5.5441,-5.5404,-5.5422,-5.539,-5.5491,-5.5392,-5.541,-5.539,-5.5386,-5.5391,-5.551,-5.5514,-5.5516,-5.5519,0,-5.5538,-5.5511,-5.553,-5.5542,-5.5558,-5.5565,-5.5565,-5.5585,-5.5515,-5.5537,-5.5566,-5.5578,-5.5602,-5.5626,-5.5635,-5.5622,-5.556,-5.5551,-5.557,-5.5588,-5.5604,-5.5595,-5.5289,-5.5543,-5.5541,-5.5539,-5.5538,-5.5537,-5.5716,-5.5756,-5.574,-5.5765,-5.5759,-5.5762,-5.5795,-5.5766,-5.5789,-5.5803,-5.5763,-5.5802,-5.579,-5.5796,-5.5791,-5.5821,-5.5776,-5.5805,-5.5811,-5.5819,-5.5831,-5.5603,-5.5823,-5.5822,-5.5821,-5.5821,-5.582,0,-5.5946,-5.5931,-5.5955,-5.5959,-5.5979,-5.592,-5.5918,-5.5939,-5.5974,-5.5968,-5.5984,-5.6019,-5.6043,-5.601,-5.6027,-5.6058,-5.603,-5.6065,-5.606,-5.6058,-5.5871,-5.5851,-5.6087,-5.6087,-5.6087,-5.6087,-5.6087,-5.6087,-5.6067,-5.6132,-5.6104,-5.6165,-5.6151,-5.6188,-5.6192,-5.6195,-5.6189,-5.6232,-5.6251,-5.6229,-5.6213,-5.623,-5.6249,-5.6239,-5.6248,-5.6293,-5.6273,-5.6098,-5.6072,-5.6047,-5.6028,-5.6297,-5.6297,-5.6457,-5.6459,-5.646]},{"header":{"parameterUnit":"m.s-1","parameterCategory":1,"la1":30.2991,"la2":30.254,"lo1":-89.0895,"lo2":-89.0444,"dy":0.0017,"dx":0.0017,"nx":28,"ny":28,"refTime":"2023-10-02T21:00:00:Z","depth":0,"parameterNumber":3,"parameterNumberName":"V-component_of_WINDS"},"data":[0,0,0,0,0,0,0,0,0,0,0,0,0,0,0,0,0,0,0,0,0,0,0,0,0,0,0,0,0,0,0,0,0,0,0,0,0,0,0,0,0,0,0,0,0,0,0,0,0,0,0,0,0,0,0,0,0,0,2.1201,2.12,0,2.118,2.118,2.118,2.1223,2.1225,2.1226,2.1228,2.1198,2.1196,2.1193,0,0,0,0,0,0,0,0,0,0,0,0,0,2.127,2.1268,2.1201,2.12,2.12,2.118,2.118,2.118,2.1223,2.1225,2.1227,2.1228,2.1198,2.1196,2.1193,0,0,0,0,0,0,0,0,0,0,0,0,0,2.1243,2.1268,2.1201,2.122,2.1221,2.118,2.118,2.118,2.1223,2.1225,2.1227,2.1229,2.1199,2.1196,2.1193,2.113,0,0,2.1183,2.1182,0,0,0,0,0,0,0,0,2.1245,2.1241,2.1217,2.1218,2.122,2.1207,2.1194,2.1163,2.1222,2.1222,2.1228,2.123,2.1198,2.1195,2.1186,2.1129,2.1127,2.1183,2.1181,2.1179,2.1179,0,0,0,0,0,0,0,2.1247,2.1242,2.1192,2.1217,2.1218,2.1227,2.1225,2.1188,2.1198,2.1222,2.1225,2.1223,2.1199,2.1189,2.1186,2.1127,2.1183,2.118,2.1178,2.1177,2.1017,2.1014,0,0,0,0,0,0,2.1247,2.1243,2.1193,2.1192,2.1238,2.1224,2.1222,2.1209,2.1199,2.1199,2.1221,2.1225,2.1194,2.119,2.1185,2.1111,2.118,2.1176,2.1175,2.1019,2.1016,2.1014,0,0,0,0,0,0,2.1248,2.1242,2.1194,2.1218,2.1213,2.122,2.1205,2.1207,2.1197,2.1198,2.1199,2.1209,2.1195,2.119,2.1144,2.111,2.1175,2.1172,2.1022,2.1018,2.1015,2.0961,0,0,0,0,0,0,2.125,2.1243,2.122,2.1218,2.1211,2.1155,2.1203,2.1205,2.1193,2.1198,2.1187,2.1187,2.1197,2.1149,2.1141,2.1107,2.117,2.1025,2.102,2.1016,2.0965,2.0956,2.0948,0,0,0,0,0,2.1253,2.1203,2.1219,2.1212,2.1184,2.1153,2.1149,2.1163,2.119,2.1166,2.1167,2.1188,2.1116,2.1144,2.1135,2.11,2.1027,2.1021,2.1016,2.097,2.0958,2.0948,0,0,0,0,0,0,2.1198,2.1203,2.122,2.1169,2.1161,2.116,2.1131,2.115,2.1131,2.1136,2.1152,2.1149,2.11,2.1096,2.1127,2.1039,2.1075,2.1068,2.1043,2.1032,2.1023,2.1023,2.1167,0,0,0,0,0,2.1181,2.1158,2.1163,2.1117,2.1112,2.1123,2.1109,2.1122,2.1112,2.1107,2.1105,2.1092,2.1067,2.1049,2.1026,2.0967,2.0964,2.0938,2.0929,2.0922,2.0914,2.0882,2.087,2.0996,2.0996,2.0996,0,0,2.1143,2.1143,2.1127,2.1106,2.1101,2.1074,2.1119,2.1088,2.1068,2.1102,2.1059,2.1057,2.1044,2.0991,2.0968,2.0986,2.0879,2.0915,2.0909,2.0905,2.0875,2.0863,2.0852,2.0993,2.0993,2.0994,0,0,2.1061,2.106,2.1022,2.1017,2.101,2.1017,2.1008,2.1006,2.1007,2.0965,2.099,2.0965,2.0922,2.0912,2.09,2.0818,2.0836,2.081,2.0761,2.073,2.072,2.0711,2.068,2.0669,2.0803,2.0803,2.0803,0,2.1014,2.0977,2.0999,2.0968,2.0957,2.0992,2.0952,2.0945,2.0929,2.092,2.0942,2.0889,2.0883,2.0828,2.0808,2.0799,2.0787,2.0809,2.072,2.0711,2.0703,2.0674,2.0662,2.08,2.08,2.0801,2.0801,0,2.092,2.0894,2.0864,2.0852,2.0838,2.0803,2.0817,2.0801,2.0815,2.082,2.0777,2.0771,2.0748,2.0736,2.0748,2.0683,2.0695,2.0718,2.0755,2.0688,2.066,2.0649,2.0795,2.0796,2.0797,2.0798,0,0,2.0798,2.0802,2.079,2.0785,2.0782,2.0761,2.0727,2.0708,2.0692,2.0681,2.0651,2.0616,2.0638,2.0626,2.0638,2.061,2.0544,2.0637,2.0637,2.0618,2.047,2.045,2.0437,2.0557,2.0555,2.0554,2.047,0,2.0716,2.0661,2.068,2.0623,2.0599,2.0632,2.0603,2.0596,2.06,2.0578,2.0582,2.0556,2.0589,2.0582,2.0556,2.0557,2.0514,2.0564,2.0527,2.0525,2.0527,2.0423,2.0402,2.0323,2.046,2.0458,2.0457,0,2.0611,2.06,2.0541,2.0543,2.0533,2.0507,2.0491,2.0471,2.0464,2.0469,2.0457,2.0475,2.044,2.048,2.0431,2.0464,2.0451,2.0449,2.0447,2.0441,2.0485,2.0412,2.0299,2.0286,2.044,2.0442,2.0443,0,2.0527,2.0497,2.0458,2.0453,2.0454,2.0435,2.0434,2.0429,2.0417,2.0403,2.0394,2.0375,2.0363,2.0347,2.0359,2.0387,2.0307,2.0348,2.0308,2.0307,2.0286,2.0287,2.0166,2.0282,2.0282,2.0282,2.0283,0,2.0431,2.0393,2.042,2.0395,2.0354,2.0377,2.0334,2.0337,2.0333,2.0308,2.0336,2.0311,2.033,2.0306,2.0315,2.0272,2.0267,2.0268,2.027,2.0264,2.0264,2.0253,2.0258,2.0279,2.028,2.0281,2.0281,0,2.0328,2.0345,2.0304,2.0311,2.0312,2.028,2.0284,2.0261,2.0269,2.0237,2.0231,2.0242,2.0216,2.0228,2.0199,2.0205,2.015,2.016,2.0153,2.0155,2.0113,2.0116,1.9979,1.9961,2.0091,2.0089,2.0088,0,2.0264,2.0237,2.0241,2.0229,2.0227,2.0205,2.0194,2.0216,2.0202,2.0194,2.017,2.0148,2.0131,2.0087,2.0091,2.007,2.0078,2.0032,2.0075,2.007,2.0075,2.0076,2.0072,2.0022,2.0021,2.002,2.0019,0,2.0149,2.016,2.0144,2.0131,2.0118,2.0108,2.01,2.0087,2.0109,2.0092,2.0068,2.0055,2.0028,2.0004,1.9986,1.9982,2.0003,2.0006,1.9995,1.9987,1.9983,1.9983,2.0127,2.0008,2.0009,2.001,2.001,2.0011,2.0063,2.004,2.004,2.0022,2.0019,2.0012,1.999,1.9998,1.9979,1.9961,1.9975,1.9945,1.994,1.9918,1.9912,1.9888,1.9906,1.989,1.9886,1.9881,1.9875,1.999,1.9885,1.9885,1.9886,1.9886,1.9886,0,1.9948,1.9951,1.9934,1.9924,1.9909,1.9935,1.9928,1.9912,1.9888,1.9882,1.9866,1.9838,1.9816,1.982,1.9799,1.9779,1.9788,1.9773,1.9773,1.9771,1.9861,1.9872,1.9766,1.9766,1.9766,1.9766,1.9766,1.9766,1.9886,1.9848,1.9859,1.982,1.9823,1.9798,1.9791,1.9784,1.978,1.9749,1.9732,1.9736,1.9734,1.9714,1.9694,1.9696,1.9685,1.9666,1.9671,1.9753,1.9765,1.9776,1.9786,1.9664,1.9664,1.9583,1.9582,1.9582]}]]